Le nostre stazioni meteo in Italia

Pubblicità
Il mio iltempo24.it
Braemar, Gran Bretagna (99089): Temperatura & dewpoint: 04.04.2020 02:00:00 - 10.04.2020 02:00:00 (BST)Braemar, Gran Bretagna (99089): Temperatura -20cm & Temperatura -100cm: 04.04.2020 02:00:00 - 10.04.2020 02:00:00 (BST)Braemar, Gran Bretagna (99089): precipitazioni: 04.04.2020 02:00:00 - 10.04.2020 02:00:00 (BST)
Data & Tempo tt [°C] td [°C] tt -20cm [°C] tt -100cm [°C] rr [mm]
10.04.2020 02:00:00 5,7 4,0 - - 0,0
10.04.2020 01:00:00 5,5 3,9 - - 0,0
10.04.2020 00:00:00 5,7 3,8 - - 0,0
09.04.2020 23:00:00 5,9 3,8 - - 0,0
09.04.2020 22:00:00 6,0 3,9 - - 0,0
09.04.2020 21:00:00 6,1 3,7 - - 0,0
09.04.2020 20:00:00 6,4 3,9 - - 0,0
09.04.2020 19:00:00 6,7 3,8 - - 0,0
09.04.2020 18:00:00 7,0 3,9 - - 0,0
09.04.2020 17:00:00 7,5 3,8 - - 0,0
09.04.2020 16:00:00 7,4 3,3 - - 0,0
09.04.2020 15:00:00 7,5 3,5 - - 0,0
09.04.2020 14:00:00 8,2 3,9 - - 0,0
09.04.2020 13:00:00 7,2 3,2 - - 0,0
09.04.2020 12:00:00 6,5 2,4 - - 0,0
09.04.2020 11:00:00 5,9 1,5 - - 0,0
09.04.2020 10:00:00 5,4 1,6 6,5 5,7 0,0
09.04.2020 09:00:00 4,2 2,2 - - 0,0
09.04.2020 08:00:00 3,2 2,2 - - 0,0
09.04.2020 07:00:00 2,8 2,1 - - 0,0
09.04.2020 06:00:00 2,8 2,0 - - 0,0
09.04.2020 05:00:00 2,8 2,1 - - 0,0
09.04.2020 04:00:00 2,9 1,9 - - 0,0
09.04.2020 03:00:00 3,0 1,6 - - 0,0
09.04.2020 02:00:00 3,2 1,7 - - 0,0
09.04.2020 01:00:00 3,2 2,0 - - 0,0
09.04.2020 00:00:00 3,7 2,3 - - 0,0
08.04.2020 23:00:00 3,7 2,2 - - 0,0
08.04.2020 22:00:00 3,8 2,3 - - 0,0
08.04.2020 21:00:00 4,3 2,9 - - 0,4
08.04.2020 20:00:00 5,4 3,8 - - 0,2
08.04.2020 19:00:00 8,0 4,9 - - 0,0
08.04.2020 18:00:00 12,0 6,0 - - 0,0
08.04.2020 17:00:00 11,5 6,8 - - 0,0
08.04.2020 16:00:00 12,7 6,3 - - 0,0
08.04.2020 15:00:00 12,7 5,9 - - 0,0
08.04.2020 14:00:00 11,8 5,3 - - 0,0
08.04.2020 13:00:00 11,2 4,9 - - 0,0
08.04.2020 12:00:00 10,9 5,0 - - 0,0
08.04.2020 11:00:00 10,4 5,1 - - 0,0
08.04.2020 10:00:00 10,2 5,1 5,9 5,4 0,0
08.04.2020 09:00:00 8,4 4,4 - - 0,0
08.04.2020 08:00:00 7,4 4,0 - - 0,0
08.04.2020 07:00:00 6,7 3,3 - - 0,0
08.04.2020 06:00:00 6,5 3,0 - - 0,0
08.04.2020 05:00:00 6,4 2,4 - - 0,0
08.04.2020 04:00:00 5,5 1,6 - - 0,0
08.04.2020 03:00:00 2,4 -0,3 - - 0,0
08.04.2020 02:00:00 4,0 -0,3 - - 0,0
08.04.2020 01:00:00 5,5 0,4 - - 0,0
08.04.2020 00:00:00 5,7 0,3 - - 0,0
07.04.2020 23:00:00 6,2 0,3 - - 0,0
07.04.2020 22:00:00 7,6 0,1 - - 0,0
07.04.2020 21:00:00 7,5 0,1 - - 0,0
07.04.2020 20:00:00 8,7 1,0 - - 0,0
07.04.2020 19:00:00 10,0 0,4 - - 0,0
07.04.2020 18:00:00 11,3 1,4 - - 0,0
07.04.2020 17:00:00 10,9 0,8 - - 0,0
07.04.2020 16:00:00 10,4 0,8 - - 0,0
07.04.2020 15:00:00 11,6 1,1 - - 0,0
07.04.2020 14:00:00 11,3 0,6 - - 0,0
07.04.2020 13:00:00 10,9 -0,6 - - 0,0
07.04.2020 12:00:00 10,1 0,5 - - 0,0
07.04.2020 11:00:00 8,4 0,1 - - 0,0
07.04.2020 10:00:00 7,4 0,8 5,7 5,2 0,0
07.04.2020 09:00:00 5,9 1,5 - - 0,0
07.04.2020 08:00:00 3,5 0,0 - - 0,0
07.04.2020 07:00:00 3,3 -0,3 - - 0,0
07.04.2020 06:00:00 2,4 -1,4 - - 0,0
07.04.2020 05:00:00 4,5 -0,4 - - 0,0
07.04.2020 04:00:00 2,8 -0,5 - - 0,0
07.04.2020 03:00:00 3,4 -0,4 - - 0,0
07.04.2020 02:00:00 4,1 0,0 - - 0,0
07.04.2020 01:00:00 2,2 -0,4 - - 0,0
07.04.2020 00:00:00 3,4 0,1 - - 0,0
06.04.2020 23:00:00 3,0 -0,5 - - 0,0
06.04.2020 22:00:00 3,8 1,0 - - 0,0
06.04.2020 21:00:00 2,9 0,4 - - 0,0
06.04.2020 20:00:00 5,0 2,2 - - 0,2
06.04.2020 19:00:00 7,4 -0,3 - - 0,0
06.04.2020 18:00:00 7,3 0,0 - - 0,0
06.04.2020 17:00:00 8,5 -1,6 - - 0,0
06.04.2020 16:00:00 6,5 2,5 - - 0,2
06.04.2020 15:00:00 7,8 2,2 - - 0,0
06.04.2020 14:00:00 8,4 2,8 - - 0,0
06.04.2020 13:00:00 9,0 2,7 - - 0,0
06.04.2020 12:00:00 8,5 4,0 - - 0,0
06.04.2020 11:00:00 8,5 2,1 - - 0,0
06.04.2020 10:00:00 6,5 3,7 6,0 5,0 0,6
06.04.2020 09:00:00 7,0 4,9 - - 0,6
06.04.2020 08:00:00 8,0 4,1 - - 0,0
06.04.2020 07:00:00 8,1 4,5 - - 0,0
06.04.2020 06:00:00 8,8 4,4 - - 0,4
06.04.2020 05:00:00 10,5 8,3 - - 2,8
06.04.2020 04:00:00 10,5 8,9 - - 1,6
06.04.2020 03:00:00 12,1 6,7 - - 0,0
06.04.2020 02:00:00 11,8 6,1 - - 0,0
06.04.2020 01:00:00 12,5 4,3 - - 0,0
06.04.2020 00:00:00 12,7 4,2 - - 0,0
05.04.2020 23:00:00 13,4 3,7 - - 0,0
05.04.2020 22:00:00 13,5 3,4 - - 0,0
05.04.2020 21:00:00 12,0 3,5 - - 0,0
05.04.2020 20:00:00 12,1 3,5 - - 0,0
05.04.2020 19:00:00 13,3 3,1 - - 0,0
05.04.2020 18:00:00 13,7 3,3 - - 0,0
05.04.2020 17:00:00 14,5 3,5 - - 0,0
05.04.2020 16:00:00 12,8 3,4 - - 0,0
05.04.2020 15:00:00 12,4 3,2 - - 0,0
05.04.2020 14:00:00 12,2 3,4 - - 0,0
05.04.2020 13:00:00 11,0 2,8 - - 0,0
05.04.2020 12:00:00 9,6 2,6 - - 0,0
05.04.2020 11:00:00 9,7 2,3 - - 0,0
05.04.2020 10:00:00 9,7 1,9 4,7 5,0 0,0
05.04.2020 09:00:00 6,6 3,1 - - 0,0
05.04.2020 08:00:00 4,5 2,2 - - 0,0
05.04.2020 07:00:00 6,0 2,1 - - 0,0
05.04.2020 06:00:00 6,4 2,2 - - 0,0
05.04.2020 05:00:00 7,1 2,3 - - 0,0
05.04.2020 04:00:00 8,0 2,4 - - 0,0
05.04.2020 03:00:00 7,5 2,4 - - 0,0
05.04.2020 02:00:00 7,8 3,3 - - 0,0
05.04.2020 01:00:00 7,6 3,2 - - 0,0
05.04.2020 00:00:00 7,2 3,1 - - 0,0
04.04.2020 23:00:00 6,8 2,3 - - 0,0
04.04.2020 22:00:00 6,9 1,8 - - 0,0
04.04.2020 21:00:00 6,6 2,4 - - 0,0
04.04.2020 20:00:00 7,0 2,0 - - 0,0
04.04.2020 19:00:00 7,4 1,7 - - 0,0
04.04.2020 18:00:00 7,6 0,9 - - 0,0
04.04.2020 17:00:00 7,6 1,4 - - 0,0
04.04.2020 16:00:00 7,6 1,6 - - 0,0
04.04.2020 15:00:00 7,3 1,7 - - 0,0
04.04.2020 14:00:00 7,7 1,0 - - 0,0
04.04.2020 13:00:00 7,9 0,8 - - 0,0
04.04.2020 12:00:00 6,8 1,5 - - 0,0
04.04.2020 11:00:00 6,5 2,1 - - 0,0
04.04.2020 10:00:00 5,9 1,8 4,2 5,0 0,0
04.04.2020 09:00:00 5,4 2,2 - - 0,0
04.04.2020 08:00:00 4,6 1,6 - - 0,0
04.04.2020 07:00:00 4,1 1,5 - - 0,0
04.04.2020 06:00:00 3,8 1,8 - - 0,0
04.04.2020 05:00:00 3,6 1,7 - - 0,0
04.04.2020 04:00:00 3,1 1,2 - - 0,0
04.04.2020 03:00:00 3,5 1,6 - - 0,0
04.04.2020 02:00:00 3,3 1,7 - - 0,0

tt = Temperatura
td = dewpoint
tt -20cm = Temperatura -20cm
tt -100cm = Temperatura -100cm
rr = precipitazioni

Stazioni seguenti

WeatherPro
AMSI
MeteoEarth